EW1472 Weather Reports


time (UTC)temp
C
wind
direction
speed
KPH
gust
KPH
rain 1hr
cm
rain 24hr
cm
rain mn
cm
humidity
%
barometer
mb
20190420061755 20 294 0.0 0.0 0.00 0.00 1.83 96 1019.8
20190420060754 20 322 0.0 0.0 0.00 0.00 1.83 96 1019.8
20190420055753 20 280 0.0 0.0 0.00 0.00 1.78 95 1020.1
20190420054752 20 2 0.0 0.0 0.00 0.00 1.65 95 1020.0
20190420053751 21 282 0.0 0.0 0.00 0.00 1.65 94 1020.0
20190420052750 21 317 0.0 0.0 0.00 0.00 1.52 95 1019.9
20190420051749 21 2 0.0 0.0 0.00 0.00 1.17 95 1019.2
20190420050748 21 299 0.0 0.0 0.00 0.00 1.17 96 1019.1
20190420045747 21 340 1.6 0.0 0.00 0.00 1.17 96 1019.1
20190420044746 21 316 0.0 0.0 0.00 0.00 1.17 96 1019.5
20190420043745 21 316 0.0 0.0 0.00 0.00 1.17 96 1019.7
20190420042743 21 286 0.0 0.0 0.00 0.00 1.17 96 1019.7
20190420041743 21 286 0.0 0.0 0.00 0.00 1.17 96 1019.6
20190420040743 20 286 0.0 0.0 0.00 0.00 1.17 96 1019.6
20190420035741 20 239 0.0 0.0 0.00 0.00 1.17 96 1019.7
20190420034740 20 206 0.0 0.0 0.00 0.00 1.17 96 1019.7
20190420033740 20 206 0.0 0.0 0.00 0.00 1.17 96 1019.8
20190420032736 20 254 0.0 0.0 0.00 0.00 1.17 97 1020.1
20190420031735 20 265 0.0 0.0 0.00 0.00 1.17 96 1020.2
20190420025732 20 265 0.0 0.0 0.00 0.00 1.17 96 1020.4
20190420024732 20 264 0.0 0.0 0.00 0.00 1.17 96 1020.5
20190420023730 20 272 0.0 0.0 0.00 0.00 1.17 95 1020.6
20190420022729 20 264 0.0 0.0 0.00 0.00 0.79 95 1020.5
20190420021728 20 307 0.0 0.0 0.00 0.00 0.61 94 1020.7
20190420020727 21 291 0.0 0.0 0.00 0.00 0.61 94 1021.0
20190420015727 21 253 1.6 0.0 0.00 0.00 0.41 95 1020.9
20190420014726 21 287 0.0 0.0 0.00 0.00 0.33 94 1020.8
20190420013724 21 260 1.6 0.0 0.00 0.00 0.23 95 1021.0
20190420012722 21 260 0.0 0.0 0.00 0.00 0.23 94 1021.3
20190420011721 21 287 0.0 0.0 0.00 0.00 0.23 94 1021.5
20190420010720 21 287 0.0 0.0 0.00 0.00 0.23 94 1021.5
20190420005719 21 268 0.0 0.0 0.00 0.00 0.23 94 1021.7
20190420004719 22 260 0.0 0.0 0.00 0.00 0.23 93 1021.7
20190420003718 21 256 0.0 0.0 0.00 0.00 0.13 93 1021.7
20190420002716 21 256 0.0 0.0 0.00 0.00 0.05 92 1021.7
20190420001715 21 277 0.0 0.0 0.00 0.00 0.05 92 1021.9
20190420000714 21 301 0.0 0.0 0.00 0.00 0.05 92 1021.9
20190419235713 21 317 0.0 0.0 0.00 0.00 0.05 92 1022.0
20190419234712 21 279 0.0 0.0 0.00 0.00 0.05 92 1022.0
20190419233711 21 284 0.0 0.0 0.00 0.00 0.05 92 1022.0
20190419232711 21 249 0.0 0.0 0.00 0.00 0.05 92 1022.0
20190419231709 21 275 0.0 0.0 0.00 0.00 0.05 92 1022.0
20190419230709 21 264 0.0 0.0 0.00 0.00 0.05 92 1022.1
20190419225708 21 264 0.0 0.0 0.00 0.00 0.05 92 1022.1
20190419224706 21 260 0.0 0.0 0.00 0.00 0.05 92 1022.2
20190419223705 21 153 0.0 0.0 0.00 0.00 0.05 93 1022.3
20190419222704 21 268 1.6 0.0 0.00 0.00 0.05 92 1022.1
20190419221703 20 254 0.0 0.0 0.00 0.00 0.05 92 1022.1
20190419220702 20 133 0.0 0.0 0.00 0.00 0.05 94 1022.0
20190419215701 20 269 0.0 0.0 0.00 0.00 0.05 95 1022.0
20190419214700 20 269 0.0 0.0 0.00 0.00 0.05 96 1022.0
20190419213659 20 303 0.0 0.0 0.00 0.00 0.05 96 1021.9
20190419212656 20 324 0.0 0.0 0.00 0.00 0.05 97 1021.8
20190419211655 20 324 0.0 0.0 0.00 0.00 0.05 97 1021.7
20190419210654 20 300 0.0 0.0 0.00 0.00 0.05 97 1021.6
20190419205653 20 315 0.0 0.0 0.00 0.00 0.05 97 1021.3
20190419204652 20 315 0.0 0.0 0.00 0.00 0.05 97 1021.3
20190419203651 19 342 0.0 0.0 0.00 0.00 0.05 97 1021.2
20190419202650 19 281 0.0 0.0 0.00 0.00 0.05 97 1021.1
20190419201649 19 320 0.0 0.0 0.00 0.00 0.05 97 1021.0
20190419200649 19 320 0.0 0.0 0.00 0.00 0.05 97 1021.0
20190419195647 19 306 0.0 0.0 0.00 0.00 0.05 97 1020.8
20190419194646 19 289 0.0 0.0 0.00 0.00 0.05 97 1020.7
20190419193645 19 289 0.0 0.0 0.00 0.00 0.05 97 1020.8
20190419192644 19 273 0.0 0.0 0.00 0.00 0.05 97 1020.6
20190419191642 19 273 0.0 0.0 0.00 0.00 0.05 97 1020.6
20190419190641 19 336 0.0 0.0 0.00 0.00 0.05 97 1020.5
20190419185641 19 310 0.0 0.0 0.00 0.00 0.05 97 1020.5
20190419184640 19 317 1.6 0.0 0.00 0.00 0.05 97 1020.3
20190419183639 19 291 0.0 0.0 0.00 0.00 0.05 97 1020.2
20190419182636 19 307 0.0 0.0 0.00 0.00 0.05 97 1020.2
20190419181635 19 299 0.0 0.0 0.00 0.00 0.05 97 1020.3
20190419180634 19 319 0.0 0.0 0.00 0.00 0.05 97 1020.1
20190419175633 19 327 0.0 0.0 0.00 0.00 0.05 97 1020.2
20190419174632 19 297 0.0 0.0 0.00 0.00 0.05 97 1020.2
20190419173631 19 297 0.0 0.0 0.00 0.00 0.05 97 1020.3
20190419172628 19 269 0.0 0.0 0.00 0.00 0.05 97 1020.3
20190419171626 19 309 0.0 0.0 0.00 0.00 0.05 97 1020.3
20190419170625 19 309 0.0 0.0 0.00 0.00 0.05 97 1020.3
20190419165624 19 309 0.0 0.0 0.00 0.00 0.05 97 1020.4
20190419164623 19 283 0.0 0.0 0.00 0.00 0.05 97 1020.4
20190419163622 19 284 0.0 0.0 0.00 0.00 0.05 97 1020.3
20190419162621 19 284 0.0 0.0 0.00 0.00 0.05 97 1020.6
20190419161621 20 336 0.0 0.0 0.00 0.00 0.05 97 1020.4
20190419160619 20 302 0.0 0.0 0.00 0.00 0.05 97 1020.4
20190419155618 19 270 0.0 0.0 0.00 0.00 0.03 97 1020.4
20190419154617 19 286 0.0 0.0 0.00 0.00 0.03 97 1020.5
20190419153616 19 320 0.0 0.0 0.00 0.00 0.03 97 1020.8
20190419152616 19 320 0.0 0.0 0.00 0.00 0.03 97 1020.9
20190419151614 19 263 0.0 0.0 0.00 0.00 0.03 97 1021.1
20190419150613 19 263 0.0 0.0 0.00 0.00 0.03 97 1021.2
20190419145612 19 263 0.0 0.0 0.00 0.00 0.03 97 1021.4
20190419144612 19 269 0.0 0.0 0.00 0.00 0.03 97 1021.3
20190419143610 19 317 0.0 0.0 0.00 0.00 0.03 97 1021.1
20190419142609 20 303 0.0 0.0 0.00 0.00 0.03 97 1021.5
20190419141608 20 303 0.0 0.0 0.00 0.00 0.03 97 1021.5
20190419140607 20 303 0.0 0.0 0.00 0.00 0.03 97 1021.4
20190419135606 20 303 0.0 0.0 0.00 0.00 2.24 97 1021.4
20190419134605 20 303 0.0 0.0 0.00 0.00 2.24 97 1021.7
20190419133605 20 285 0.0 0.0 0.00 0.00 2.24 97 1021.8
20190419132603 20 311 0.0 0.0 0.00 0.00 2.21 97 1021.8
20190419131602 20 311 0.0 0.0 0.00 0.00 2.21 97 1021.8
20190419130601 20 311 0.0 0.0 0.00 0.00 2.21 97 1021.9
20190419125600 20 311 0.0 0.0 0.00 0.00 2.21 97 1022.0
20190419124559 20 311 0.0 0.0 0.00 0.00 2.21 97 1022.0
20190419123558 20 274 0.0 0.0 0.00 0.00 2.21 97 1022.0
20190419122557 20 278 0.0 0.0 0.00 0.00 2.21 97 1022.1
20190419121556 20 278 0.0 0.0 0.00 0.00 2.21 97 1022.0
20190419120555 20 310 0.0 0.0 0.00 0.00 2.21 97 1022.2
20190419115554 20 291 0.0 0.0 0.00 0.00 2.21 97 1022.2
20190419114553 20 275 0.0 0.0 0.00 0.00 2.21 97 1022.1
20190419113552 20 111 0.0 0.0 0.00 0.00 2.21 97 1022.1
20190419112551 20 289 0.0 0.0 0.00 0.00 2.21 97 1022.1
20190419111550 20 281 0.0 0.0 0.00 0.00 2.21 97 1022.2
20190419110549 20 204 0.0 0.0 0.00 0.00 2.21 97 1022.1
20190419105548 20 296 0.0 0.0 0.00 0.00 2.21 97 1022.0
20190419104546 20 277 0.0 0.0 0.00 0.00 2.21 97 1022.0
20190419103544 20 286 1.6 0.0 0.00 0.00 2.21 97 1021.8
20190419102542 20 313 0.0 0.0 0.00 0.00 2.21 97 1021.7
20190419101542 20 272 0.0 0.0 0.00 0.00 2.21 97 1021.6
20190419100540 20 312 0.0 0.0 0.00 0.00 2.21 97 1021.7
20190419095540 20 303 0.0 0.0 0.00 0.00 2.21 97 1021.6
20190419094539 20 274 0.0 0.0 0.00 0.00 2.21 97 1021.7
20190419093538 20 304 0.0 0.0 0.00 0.00 2.21 97 1021.6
20190419092537 20 243 0.0 0.0 0.00 0.00 2.11 97 1021.5
20190419091538 20 286 0.0 0.0 0.00 0.00 2.03 97 1021.4
20190419090536 20 286 0.0 0.0 0.00 0.00 2.03 97 1021.5
20190419085533 20 286 0.0 0.0 0.00 0.00 1.96 97 1021.3
20190419084533 20 312 0.0 0.0 0.00 0.00 1.88 97 1021.2
20190419083530 20 264 0.0 0.0 0.00 0.00 1.83 97 1021.1
20190419082530 20 323 0.0 0.0 0.00 0.00 1.83 97 1021.1
20190419081529 20 325 0.0 0.0 0.00 0.00 1.83 97 1021.0
20190419080528 20 325 0.0 0.0 0.00 0.00 1.83 97 1021.0
20190419075527 20 325 0.0 0.0 0.00 0.00 1.73 96 1021.1
20190419074525 20 326 0.0 0.0 0.00 0.00 1.37 97 1021.1
20190419073525 20 326 0.0 0.0 0.00 0.00 1.35 96 1020.9
20190419072524 20 326 0.0 0.0 0.00 0.00 1.35 96 1020.8
20190419071522 20 326 0.0 0.0 0.00 0.00 1.35 96 1020.7
20190419070521 20 326 0.0 0.0 0.00 0.00 1.35 96 1020.7
20190419065521 20 326 0.0 0.0 0.00 0.00 1.35 96 1020.5
20190419064519 20 326 0.0 0.0 0.00 0.00 1.35 96 1020.4
20190419063519 20 324 0.0 0.0 0.00 0.00 1.35 95 1020.5
20190419062517 20 286 0.0 0.0 0.00 0.00 1.35 95 1020.7